Showing default

MERIDIAN 9, 45254

Orbit data source: Space-Track

MERIDIAN 9, 45254 is a payload satellite owned by VVKO VKS (CIS) in HEO that was launched on Thu, 20 Feb 2020 UTC via a SOYUZ-2-1A launch vehicle from the Plesetsk Missile And Space Complex (PKMTR). Payloads include a variety of satellites, spacecraft, and rockets equipped with specific instruments for various scientific and technological missions. These include communications satellites like Starlink; space stations such as the ISS; scientific satellites like the Hubble; Earth observation satellites from companies like Planet Labs, Umbra, and HawkEye 360; GPS; miniature CubeSats for education and research; and military/defense satellites.

Loading next visibility...
MERIDIAN 9 details
Identifier
45254, 2020-015A
Orbit
HEO
Last TLE update11 hours ago
Origin
Flag of CISVVKO VKS (CIS)
ManufacturerResehetnev ISS
MissionOperational Defense Communications
Bus & MotorMERIDIAN, Unknown motor
Mass~2,000 kg wet, ~2,000 kg dry
Launch date (UTC)
2020-02-20 (5 years ago)
Launch vehicle
SOYUZ-2-1A
Launch site
Plesetsk Missile And Space Complex (PKMTR)
Object type
Payload
Rocket body
Debris
Shape & HBRBox + 2 Pan, Unknown HBR
Radar Cross Section14.304 m², Large (>1 m²)

Expand to show TLE details & history

TLE from 11 hours ago
0 MERIDIAN 9
1 45254U 20015A   24361.10858475 -.00000096  00000-0  00000-0 0  9998
2 45254  65.0185  18.4026 6960914 286.2555  12.1519  2.00621376 35493
Epoch: 2024-12-26T02:36Z
Definitive object data (Epoch: 2024-12-26T02:36:21.722Z)
Latitude-0°
Longitude-115.7295°
Altitude5,089.823 km
Speed7.383 km/s
True Right ascension01h 13m 48s
True Declination0° 00' 00"
Sunlit
Object was in daylight at TLE epoch
Visualization TLE readout
Latitude-5.0678°
Longitude66.58413°
Altitude9,324.884 km
Speed5.98 km/s
Apparent Right ascension13h 38m 53s
Apparent Declination-26° 44' 20"
Sunlit
Object is in daylight
Visualization observer readout
Local Sidereal Time12:47:59
Azimuth167.726° S
Elevation22.299°
Doppler factor1
Orbital elements
Apogee altitude38,660.252 km
Perigee altitude1,691.92 km
Semi-major axis26,554.223 km
Eccentricity0.6960914
Inclination65.0185°
RAAN18.4026°
Arg. of periapsis286.2555°
True anomaly73.47035°
Mean anomaly12.1519°
Eccentric anomaly35.06489°
Mean motion0.50158 °/min
BSTARUnknown
Orbital period717.73 mins
Loading maneuver chart data...
Loading historical data...
Loading historical data...
Loading historical data...
Loading historical data...
Loading historical data...
Loading historical data...
Loading historical data...
Other satellites on launch #15 in the year 2020 (2020-02-20 UTC)

MERIDIAN 9 Visibility forecast

Observer location: undefined°, undefined

Span
Click to sort rows by Start time (UTC) header in descending order
Start Az.
Max El. time (UTC)
Max El. Az.
Max El.
End time (UTC)
End Az.
7 mins2024-12-26 13:26:19.230Z167.738° S2024-12-26 13:26:19.230Z167.738° S20.749°2024-12-26 13:33:19.230Z167.148° S
655 mins2024-12-27 02:31:19.230Z196.42° SSW2024-12-27 03:13:19.230Z110.978° ESE44.985°2024-12-27 13:26:19.230Z167.408° S
|